SCP
0 0 0 0 0 0 0 0 0 0 0 0 0 0 0 0 0 0 0 0 0 0 0 0 0 0 0 0 0 0 0 0 0 0 0 0 0 0 0 0 0 0 0
0 0 0 0 0 0 0 0 0 0 0 0 0 0 0 0 0 0 0 0 0 0 0 0 0 0 0 0 0 0 0 0 0 0 0 0 0 0 0 0 0 0 0
0 0 0 0 0 0 0 0 0 0 0 0 0 0 0 0 0 0 0 0 0 0 0 0 0 0 0 0 0 0 0 0 0 0 0 0 0 0 0 0 0 0 0
0 0 0 0 0 0 0 0 0 0 0 0 0 0 0 0 0 0 0 0 0 0 0 0 0 0 0 0 0 0 0 0 0 0 0 0 0 0 0 0 0 0 0
0 0 0 0 0 0 0 0 0 0 0 0 0 0 0 0 0 0 0 0 0 0 0 0 0 0 0 0 0 0 0 0 0 0 0 0 0 0 0 0 0 0 0
0 0 0 0 0 0 0 0 0 0 0 0 0 0 0 0 0 0 0 0 0 0 0 0 0 0 0 0 0 0 0 0 0 0 0 0 0 0 0 0 0 0 0
0 0 0 0 0 0 0 0 0 0 0 0 0 0 0 0 0 0 0 0 0 0 0 0 0 0 0 0 0 0 0 0 0 0 0 0 0 0 0 0 0 0 0
0 0 0 0 0 0 0 0 0 0 0 0 0 0 0 0 0 0 0 0 0 0 0 0 0 0 0 0 0 0 0 0 0 0 0 0 0 0 0 0 0 0 0
0 0 0 0 0 0 0 0 0 0 0 0 0 0 0 0 0 0 0 0 0 0 0 0 0 0 0 0 0 0 0 0 0 0 0 0 0 0 0 0 0 0 0
0 0 0 0 0 0 0 0 0 0 0 0 0 0 0 0 0 0 0 0 0 0 0 0 0 0 0 0 0 0 0 0 0 0 0 0 0 0 0 0 0 0 0
0 0 0 0 0 0 0 0 0 0 0 0 0 0 0 0 0 0 0 0 0 0 0 0 0 0 0 0 0 0 0 0 0 0 0 0 0 0 0 0 0 0 0
0 0 0 0 0 0 0 0 0 0 0 0 0 0 0 0 0 0 0 0 0 0 0 0 0 0 0 0 0 0 0 0 0 0 0 0 0 0 0 0 0 0 0
0 0 0 0 0 0 0 0 0 0 0 0 0 0 0 0 0 0 0 0 0 0 0 0 0 0 0 0 0 0 0 0 0 0 0 0 0 0 0 0 0 0 0
0 0 0 0 0 0 0 0 0 0 0 0 0 0 0 0 0 0 0 0 0 0 0 0 0 0 0 0 0 0 0 0 0 0 0 0 0 0 0 0 0 0 0
0 0 0 0 0 0 0 0 0 0 0 0 0 0 0 0 0 0 0 0 0 0 0 0 0 0 0 0 0 0 0 0 0 0 0 0 0 0 0 0 0 0 0
0 0 0 0 0 0 0 0 0 0 0 0 0 0 0 0 0 0 0 0 0 0 0 0 0 0 0 0 0 0 0 0 0 0 0 0 0 0 0 0 0 0 0
0 0 0 0 0 0 0 0 0 0 0 0 0 0 0 0 0 0 0 0 0 0 0 0 0 0 0 0 0 0 0 0 0 0 0 0 0 0 0 0 0 0 0
0 0 0 0 0 0 0 0 0 0 0 0 0 0 0 0 0 0 0 0 0 0 0 0 0 0 0 0 0 0 0 0 0 0 0 0 0 0 0 0 0 0 0
0 0 0 0 0 0 0 0 0 0 0 0 0 0 0 0 0 0 0 0 0 0 0 0 0 0 0 0 0 0 0 0 0 0 0 0 0 0 0 0 0 0 0
0 0 0 0 0 0 0 0 0 0 0 0 0 0 0 0 0 0 0 0 0 0 0 0 0 0 0 0 0 0 0 0 0 0 0 0 0 0 0 0 0 0 0
0 0 0 0 0 0 0 0 0 0 0 0 0 0 0 0 0 0 0 0 0 0 0 0 0 0 0 0 0 0 0 0 0 0 0 0 0 0 0 0 0 0 0
0 0 0 0 0 0 0 0 0 0 0 0 0 0 0 0 0 0 0 0 0 0 0 0 0 0 0 0 0 0 0 0 0 0 0 0 0 0 0 0 0 0 0
0 0 0 0 0 0 0 0 0 0 0 0 0 0 0 0 0 0 0 0 0 0 0 0 0 0 0 0 0 0 0 0 0 0 0 0 0 0 0 0 0 0 0
0 0 0 0 0 0 0 0 0 0 0 0 0 0 0 0 0 0 0 0 0 0 0 0 0 0 0 0 0 0 0 0 0 0 0 0 0 0 0 0 0 0 0
0 0 0 0 0 0 0 0 0 0 0 0 0 0 0 0 0 0 0 0 0 0 0 0 0 0 0 0 0 0 0 0 0 0 0 0 0 0 0 0 0 0 0
0 0 0 0 0 0 0 0 0 0 0 0 0 0 0 0 0 0 0 0 0 0 0 0 0 0 0 0 0 0 0 0 0 0 0 0 0 0 0 0 0 0 0
Wind_Speed_500mb
6 6 9 10 14 20 28 32 37 43 47 53 55 60 65 70 74 79 85 91 99 104 101 104 112 98 110 100 100 110 107 103 106 100 89 73 71 68 84 94 83 80 74
14 10 8 11 18 23 28 33 36 40 43 48 53 58 62 65 68 73 78 84 90 95 102 100 105 104 104 101 106 107 104 104 105 105 100 82 76 79 69 89 90 87 78
16 17 20 24 28 31 35 39 43 47 49 50 54 57 60 63 66 70 75 78 81 78 84 95 99 96 99 101 103 103 104 102 96 105 105 89 80 70 77 84 88 84 75
23 26 32 36 38 43 47 49 51 52 57 59 59 58 59 62 65 69 71 73 75 82 86 92 93 96 97 99 101 99 99 101 96 96 102 89 79 69 75 80 91 86 77
33 33 36 41 43 44 47 51 55 60 63 64 67 67 65 66 67 69 71 72 74 79 81 85 90 93 93 91 91 96 97 97 95 92 99 91 83 81 87 83 88 88 77
36 38 42 48 51 52 54 55 57 60 63 66 69 70 72 71 67 68 73 77 75 77 80 80 81 82 84 86 90 92 91 85 91 93 100 99 95 93 81 80 96 87 76
36 37 38 40 41 44 50 53 54 57 63 68 69 70 74 75 70 70 71 77 79 80 80 80 83 84 83 87 88 86 85 79 79 86 100 105 103 91 71 79 82 80 81
44 45 46 48 50 51 52 53 56 58 57 60 66 70 72 73 71 70 71 76 82 82 80 77 80 81 81 81 79 81 83 80 82 88 90 82 78 68 58 68 81 77 71
50 51 53 56 59 59 60 61 60 63 65 65 64 66 71 75 69 67 69 77 83 83 82 79 78 79 75 72 70 74 77 77 77 76 69 60 48 51 65 63 70 66 72
55 54 53 55 59 63 65 67 69 70 72 72 73 69 69 74 68 66 69 76 82 84 82 80 79 77 73 68 70 70 77 80 74 71 62 56 56 66 68 68 66 68 71
56 55 53 53 56 57 62 63 68 71 74 74 79 79 76 70 71 67 66 74 80 82 84 85 78 73 71 68 69 69 71 74 73 72 59 65 73 75 65 61 57 62 57
67 66 63 59 59 61 64 65 63 64 71 76 76 76 78 76 70 65 64 69 75 80 82 82 77 69 67 63 60 65 63 69 73 63 70 78 78 66 58 59 59 56 48
75 75 75 75 72 69 70 69 68 67 68 73 79 81 77 76 70 61 56 63 69 74 79 76 72 62 54 49 54 63 56 67 72 76 80 83 68 55 59 57 56 56 50
81 83 78 78 80 78 77 75 74 73 72 72 75 83 86 83 72 59 53 56 62 64 77 74 64 51 41 43 51 62 59 63 72 74 76 69 58 60 57 52 53 55 54
86 88 88 84 81 81 80 81 80 75 68 73 77 78 81 83 76 56 52 52 52 54 67 71 63 47 37 41 55 62 55 59 64 67 65 62 55 55 54 50 50 52 57
88 88 90 92 90 88 88 89 84 76 67 69 71 72 76 74 59 55 52 48 44 38 54 62 65 51 40 46 58 64 67 68 71 75 61 50 51 51 51 50 51 53 54
84 86 88 89 88 87 85 88 85 78 70 64 63 62 60 61 53 47 44 37 31 32 51 54 56 51 41 44 53 64 69 68 66 63 55 49 46 47 48 47 45 42 39
80 80 82 84 83 80 74 79 71 75 78 71 49 51 48 44 39 34 29 27 30 37 46 41 44 42 38 39 48 61 69 61 57 58 60 60 57 52 54 52 48 48 46
77 78 77 78 78 74 68 70 69 71 70 67 54 43 41 37 30 25 20 28 33 38 51 42 32 30 32 33 39 49 55 60 56 57 61 65 65 63 59 54 49 48 49
72 71 69 70 70 67 59 62 66 65 61 62 57 47 38 33 32 28 25 27 28 38 43 45 38 31 26 26 29 35 42 48 51 51 51 52 54 55 58 56 56 56 56
69 67 63 61 60 58 54 51 56 55 53 54 52 42 34 30 30 28 26 25 23 21 33 28 32 31 30 27 25 29 34 38 40 42 44 45 47 50 50 49 49 50 50
59 59 57 56 54 52 51 48 47 45 43 44 39 32 28 24 23 25 24 23 26 23 20 22 33 22 21 26 29 30 30 31 31 32 33 35 36 40 43 45 46 46 47
49 49 47 46 46 45 43 37 35 34 33 29 26 25 22 18 20 22 22 24 25 23 24 23 24 27 30 33 34 33 35 35 32 33 36 38 40 42 43 45 44 45 47
42 42 41 39 37 35 32 28 27 25 22 20 21 21 21 19 21 21 20 21 23 25 25 24 25 25 27 28 29 31 33 36 37 38 39 40 42 42 43 43 43 44 46
38 36 35 33 31 29 24 19 16 15 14 15 16 20 22 25 26 26 25 25 24 23 24 25 26 28 29 32 32 33 34 37 40 40 40 41 41 41 43 43 44 44 45
34 33 32 29 26 24 22 19 16 12 10 7 7 7 9 12 13 17 20 22 25 28 30 31 32 34 35 36 37 38 37 37 39 41 41 42 41 42 42 42 43 43 44
Wind_Direction_500mb
2 294 269 261 267 277 280 281 281 276 273 271 269 267 264 263 261 261 261 260 257 258 259 262 268 261 258 263 268 263 258 256 255 254 252 246 243 235 236 230 228 227 226
35 27 343 309 295 293 294 292 287 284 280 278 273 269 267 263 261 261 262 263 262 257 257 259 261 262 261 262 265 264 261 262 256 254 249 241 232 238 236 230 232 225 225
4 349 331 319 311 302 296 293 290 286 283 280 277 274 272 269 266 264 265 265 265 262 260 260 262 263 263 265 266 265 264 262 257 252 248 238 241 235 227 230 228 227 224
327 321 318 316 312 308 302 299 297 295 288 283 280 277 273 272 269 267 265 265 262 260 261 263 263 264 265 266 268 267 263 262 259 250 243 241 242 234 228 224 221 221 221
317 313 307 302 300 298 296 294 293 292 291 289 284 281 278 274 272 270 267 265 263 263 263 262 262 263 264 265 265 264 263 261 257 249 238 235 230 219 222 225 223 221 215
342 332 318 307 304 305 304 301 297 294 292 289 285 283 280 278 278 274 271 268 264 262 263 264 266 267 266 266 267 266 265 260 255 245 236 231 228 226 228 223 218 209 210
344 341 335 328 323 319 315 312 309 306 301 294 288 283 282 281 281 277 272 268 264 262 262 264 266 265 265 265 266 265 263 259 254 252 241 236 230 233 223 221 215 212 218
334 331 327 323 321 320 317 315 313 308 303 299 295 290 284 280 280 278 276 270 265 264 261 263 266 266 266 267 265 261 259 257 248 242 241 244 243 224 222 213 216 218 219
330 329 327 324 319 316 314 313 310 307 307 304 297 290 285 284 280 277 275 272 268 265 262 264 266 267 267 266 262 257 253 249 241 238 241 229 214 201 206 220 220 216 219
326 326 325 324 321 319 316 314 312 307 304 302 300 295 289 284 279 276 274 272 270 267 264 265 267 268 269 264 259 253 247 244 235 228 214 203 208 206 228 229 216 215 221
314 314 316 316 314 316 315 315 309 305 302 302 302 301 295 288 284 277 271 268 266 268 268 265 266 270 272 268 259 253 248 246 230 215 206 200 209 217 214 216 218 225 221
303 302 302 305 308 311 310 312 312 311 304 300 298 297 299 296 289 280 274 270 268 267 266 267 269 271 271 269 251 248 246 242 218 207 206 209 217 221 223 214 213 221 224
304 302 299 296 297 302 303 305 308 310 309 305 300 296 295 296 296 290 277 269 267 270 269 268 266 270 271 264 242 240 229 219 210 205 212 221 224 222 218 212 213 223 228
304 303 305 304 299 295 295 296 298 301 303 303 302 300 298 296 294 294 283 273 269 268 261 262 264 268 265 256 225 221 222 221 213 213 227 225 220 220 221 217 216 221 227
307 305 304 303 303 300 293 290 291 293 296 295 293 293 293 292 294 290 280 274 270 268 257 257 256 258 250 231 224 218 212 208 214 219 228 220 222 231 226 224 221 226 232
306 306 306 306 305 304 303 297 292 292 294 292 290 289 290 289 287 282 275 274 270 260 255 253 250 250 244 226 220 215 217 217 223 221 227 236 234 223 221 223 225 230 237
303 302 302 303 302 301 300 299 300 294 294 292 290 286 281 281 281 279 274 269 253 228 246 250 250 247 246 236 221 219 225 228 235 227 218 225 224 227 224 223 226 230 239
302 301 301 301 301 300 296 294 296 294 294 294 289 284 279 277 274 270 267 250 236 223 240 250 250 248 246 233 228 223 224 223 223 231 237 245 235 237 234 235 238 245 246
303 302 301 300 300 300 298 293 290 290 289 290 291 279 269 269 264 259 262 245 239 224 236 243 246 246 247 242 232 231 233 236 240 246 247 240 242 241 242 246 247 256 256
306 305 305 304 301 300 298 292 288 291 290 288 285 277 269 261 250 250 252 256 250 232 235 246 252 252 250 246 242 240 240 240 243 245 246 247 248 246 245 250 250 255 259
312 310 309 307 305 303 298 294 291 292 292 290 285 277 266 250 245 250 255 257 261 250 236 253 258 258 257 254 249 245 244 245 245 246 247 247 245 245 250 253 253 253 254
316 316 317 316 315 309 302 295 290 289 290 290 285 275 257 248 245 242 247 247 252 255 252 253 252 256 251 250 250 248 248 248 246 244 245 244 245 246 250 251 250 250 246
322 322 323 323 321 317 309 299 295 286 281 278 275 266 250 239 239 237 242 241 240 242 239 234 234 237 242 247 250 252 253 255 254 253 251 251 250 249 249 249 247 245 246
332 329 330 331 330 326 319 307 293 285 274 267 249 231 229 232 237 240 242 244 243 241 242 239 237 238 243 242 241 244 248 249 247 247 246 245 247 247 244 245 247 248 250
341 340 338 339 341 342 340 333 317 296 279 262 250 243 249 248 243 241 244 247 244 243 243 243 243 244 246 249 253 258 258 253 253 251 249 248 249 250 250 250 250 250 248
349 351 352 351 350 353 354 355 353 346 334 316 285 265 248 245 241 244 245 249 250 248 248 249 249 249 251 256 259 261 262 259 254 253 252 252 251 251 250 250 250 249 248
Wind_Speed_850mb
6 6 9 10 14 20 28 32 37 43 47 53 55 60 65 70 74 79 85 91 99 104 101 104 112 98 110 100 100 110 107 103 106 100 89 73 71 68 84 94 83 80 74
14 10 8 11 18 23 28 33 36 40 43 48 53 58 62 65 68 73 78 84 90 95 102 100 105 104 104 101 106 107 104 104 105 105 100 82 76 79 69 89 90 87 78
16 17 20 24 28 31 35 39 43 47 49 50 54 57 60 63 66 70 75 78 81 78 84 95 99 96 99 101 103 103 104 102 96 105 105 89 80 70 77 84 88 84 75
23 26 32 36 38 43 47 49 51 52 57 59 59 58 59 62 65 69 71 73 75 82 86 92 93 96 97 99 101 99 99 101 96 96 102 89 79 69 75 80 91 86 77
33 33 36 41 43 44 47 51 55 60 63 64 67 67 65 66 67 69 71 72 74 79 81 85 90 93 93 91 91 96 97 97 95 92 99 91 83 81 87 83 88 88 77
36 38 42 48 51 52 54 55 57 60 63 66 69 70 72 71 67 68 73 77 75 77 80 80 81 82 84 86 90 92 91 85 91 93 100 99 95 93 81 80 96 87 76
36 37 38 40 41 44 50 53 54 57 63 68 69 70 74 75 70 70 71 77 79 80 80 80 83 84 83 87 88 86 85 79 79 86 100 105 103 91 71 79 82 80 81
44 45 46 48 50 51 52 53 56 58 57 60 66 70 72 73 71 70 71 76 82 82 80 77 80 81 81 81 79 81 83 80 82 88 90 82 78 68 58 68 81 77 71
50 51 53 56 59 59 60 61 60 63 65 65 64 66 71 75 69 67 69 77 83 83 82 79 78 79 75 72 70 74 77 77 77 76 69 60 48 51 65 63 70 66 72
55 54 53 55 59 63 65 67 69 70 72 72 73 69 69 74 68 66 69 76 82 84 82 80 79 77 73 68 70 70 77 80 74 71 62 56 56 66 68 68 66 68 71
56 55 53 53 56 57 62 63 68 71 74 74 79 79 76 70 71 67 66 74 80 82 84 85 78 73 71 68 69 69 71 74 73 72 59 65 73 75 65 61 57 62 57
67 66 63 59 59 61 64 65 63 64 71 76 76 76 78 76 70 65 64 69 75 80 82 82 77 69 67 63 60 65 63 69 73 63 70 78 78 66 58 59 59 56 48
75 75 75 75 72 69 70 69 68 67 68 73 79 81 77 76 70 61 56 63 69 74 79 76 72 62 54 49 54 63 56 67 72 76 80 83 68 55 59 57 56 56 50
81 83 78 78 80 78 77 75 74 73 72 72 75 83 86 83 72 59 53 56 62 64 77 74 64 51 41 43 51 62 59 63 72 74 76 69 58 60 57 52 53 55 54
86 88 88 84 81 81 80 81 80 75 68 73 77 78 81 83 76 56 52 52 52 54 67 71 63 47 37 41 55 62 55 59 64 67 65 62 55 55 54 50 50 52 57
88 88 90 92 90 88 88 89 84 76 67 69 71 72 76 74 59 55 52 48 44 38 54 62 65 51 40 46 58 64 67 68 71 75 61 50 51 51 51 50 51 53 54
84 86 88 89 88 87 85 88 85 78 70 64 63 62 60 61 53 47 44 37 31 32 51 54 56 51 41 44 53 64 69 68 66 63 55 49 46 47 48 47 45 42 39
80 80 82 84 83 80 74 79 71 75 78 71 49 51 48 44 39 34 29 27 30 37 46 41 44 42 38 39 48 61 69 61 57 58 60 60 57 52 54 52 48 48 46
77 78 77 78 78 74 68 70 69 71 70 67 54 43 41 37 30 25 20 28 33 38 51 42 32 30 32 33 39 49 55 60 56 57 61 65 65 63 59 54 49 48 49
72 71 69 70 70 67 59 62 66 65 61 62 57 47 38 33 32 28 25 27 28 38 43 45 38 31 26 26 29 35 42 48 51 51 51 52 54 55 58 56 56 56 56
69 67 63 61 60 58 54 51 56 55 53 54 52 42 34 30 30 28 26 25 23 21 33 28 32 31 30 27 25 29 34 38 40 42 44 45 47 50 50 49 49 50 50
59 59 57 56 54 52 51 48 47 45 43 44 39 32 28 24 23 25 24 23 26 23 20 22 33 22 21 26 29 30 30 31 31 32 33 35 36 40 43 45 46 46 47
49 49 47 46 46 45 43 37 35 34 33 29 26 25 22 18 20 22 22 24 25 23 24 23 24 27 30 33 34 33 35 35 32 33 36 38 40 42 43 45 44 45 47
42 42 41 39 37 35 32 28 27 25 22 20 21 21 21 19 21 21 20 21 23 25 25 24 25 25 27 28 29 31 33 36 37 38 39 40 42 42 43 43 43 44 46
38 36 35 33 31 29 24 19 16 15 14 15 16 20 22 25 26 26 25 25 24 23 24 25 26 28 29 32 32 33 34 37 40 40 40 41 41 41 43 43 44 44 45
34 33 32 29 26 24 22 19 16 12 10 7 7 7 9 12 13 17 20 22 25 28 30 31 32 34 35 36 37 38 37 37 39 41 41 42 41 42 42 42 43 43 44
Wind_Direction_850mb
2 294 269 261 267 277 280 281 281 276 273 271 269 267 264 263 261 261 261 260 257 258 259 262 268 261 258 263 268 263 258 256 255 254 252 246 243 235 236 230 228 227 226
35 27 343 309 295 293 294 292 287 284 280 278 273 269 267 263 261 261 262 263 262 257 257 259 261 262 261 262 265 264 261 262 256 254 249 241 232 238 236 230 232 225 225
4 349 331 319 311 302 296 293 290 286 283 280 277 274 272 269 266 264 265 265 265 262 260 260 262 263 263 265 266 265 264 262 257 252 248 238 241 235 227 230 228 227 224
327 321 318 316 312 308 302 299 297 295 288 283 280 277 273 272 269 267 265 265 262 260 261 263 263 264 265 266 268 267 263 262 259 250 243 241 242 234 228 224 221 221 221
317 313 307 302 300 298 296 294 293 292 291 289 284 281 278 274 272 270 267 265 263 263 263 262 262 263 264 265 265 264 263 261 257 249 238 235 230 219 222 225 223 221 215
342 332 318 307 304 305 304 301 297 294 292 289 285 283 280 278 278 274 271 268 264 262 263 264 266 267 266 266 267 266 265 260 255 245 236 231 228 226 228 223 218 209 210
344 341 335 328 323 319 315 312 309 306 301 294 288 283 282 281 281 277 272 268 264 262 262 264 266 265 265 265 266 265 263 259 254 252 241 236 230 233 223 221 215 212 218
334 331 327 323 321 320 317 315 313 308 303 299 295 290 284 280 280 278 276 270 265 264 261 263 266 266 266 267 265 261 259 257 248 242 241 244 243 224 222 213 216 218 219
330 329 327 324 319 316 314 313 310 307 307 304 297 290 285 284 280 277 275 272 268 265 262 264 266 267 267 266 262 257 253 249 241 238 241 229 214 201 206 220 220 216 219
326 326 325 324 321 319 316 314 312 307 304 302 300 295 289 284 279 276 274 272 270 267 264 265 267 268 269 264 259 253 247 244 235 228 214 203 208 206 228 229 216 215 221
314 314 316 316 314 316 315 315 309 305 302 302 302 301 295 288 284 277 271 268 266 268 268 265 266 270 272 268 259 253 248 246 230 215 206 200 209 217 214 216 218 225 221
303 302 302 305 308 311 310 312 312 311 304 300 298 297 299 296 289 280 274 270 268 267 266 267 269 271 271 269 251 248 246 242 218 207 206 209 217 221 223 214 213 221 224
304 302 299 296 297 302 303 305 308 310 309 305 300 296 295 296 296 290 277 269 267 270 269 268 266 270 271 264 242 240 229 219 210 205 212 221 224 222 218 212 213 223 228
304 303 305 304 299 295 295 296 298 301 303 303 302 300 298 296 294 294 283 273 269 268 261 262 264 268 265 256 225 221 222 221 213 213 227 225 220 220 221 217 216 221 227
307 305 304 303 303 300 293 290 291 293 296 295 293 293 293 292 294 290 280 274 270 268 257 257 256 258 250 231 224 218 212 208 214 219 228 220 222 231 226 224 221 226 232
306 306 306 306 305 304 303 297 292 292 294 292 290 289 290 289 287 282 275 274 270 260 255 253 250 250 244 226 220 215 217 217 223 221 227 236 234 223 221 223 225 230 237
303 302 302 303 302 301 300 299 300 294 294 292 290 286 281 281 281 279 274 269 253 228 246 250 250 247 246 236 221 219 225 228 235 227 218 225 224 227 224 223 226 230 239
302 301 301 301 301 300 296 294 296 294 294 294 289 284 279 277 274 270 267 250 236 223 240 250 250 248 246 233 228 223 224 223 223 231 237 245 235 237 234 235 238 245 246
303 302 301 300 300 300 298 293 290 290 289 290 291 279 269 269 264 259 262 245 239 224 236 243 246 246 247 242 232 231 233 236 240 246 247 240 242 241 242 246 247 256 256
306 305 305 304 301 300 298 292 288 291 290 288 285 277 269 261 250 250 252 256 250 232 235 246 252 252 250 246 242 240 240 240 243 245 246 247 248 246 245 250 250 255 259
312 310 309 307 305 303 298 294 291 292 292 290 285 277 266 250 245 250 255 257 261 250 236 253 258 258 257 254 249 245 244 245 245 246 247 247 245 245 250 253 253 253 254
316 316 317 316 315 309 302 295 290 289 290 290 285 275 257 248 245 242 247 247 252 255 252 253 252 256 251 250 250 248 248 248 246 244 245 244 245 246 250 251 250 250 246
322 322 323 323 321 317 309 299 295 286 281 278 275 266 250 239 239 237 242 241 240 242 239 234 234 237 242 247 250 252 253 255 254 253 251 251 250 249 249 249 247 245 246
332 329 330 331 330 326 319 307 293 285 274 267 249 231 229 232 237 240 242 244 243 241 242 239 237 238 243 242 241 244 248 249 247 247 246 245 247 247 244 245 247 248 250
341 340 338 339 341 342 340 333 317 296 279 262 250 243 249 248 243 241 244 247 244 243 243 243 243 244 246 249 253 258 258 253 253 251 249 248 249 250 250 250 250 250 248
349 351 352 351 350 353 354 355 353 346 334 316 285 265 248 245 241 244 245 249 250 248 248 249 249 249 251 256 259 261 262 259 254 253 252 252 251 251 250 250 250 249 248